Miscellaneous Local Product
Issued by NWS Hastings, NE

Home | Current Version | Previous Version | Graphics & Text | Print | Product List | Glossary On
Versions: 1 2 3 4 5 6 7 8 9 10 11 12 13 14 15 16 17 18 19 20 21 22 23 24 25 26 27 28 29 30 31 32 33 34 35 36 37 38 39 40 41 42 43 44 45 46 47 48 49 50
000
AXUS43 KGID 230802
MISGRI

GID CWA HOURLY WEATHER ROUNDUP
NATIONAL WEATHER SERVICE HASTINGS NE
200 AM CST TUE DEC 23 2014

NOTE: "FAIR" INDICATES FEW OR NO CLOUDS BELOW 12,000 FEET WITH NO
SIGNIFICANT WEATHER AND/OR OBSTRUCTIONS TO VISIBILITY.

...SOUTH CENTRAL NEBRASKA...

CITY           SKY/WX    TMP DP  RH WIND       PRES   REMARKS
GRAND ISLAND   LGT SNOW  31  28  89 W15       29.58R FOG     WCI  20
HASTINGS       CLOUDY    32  26  78 NW20      29.58R WCI  20
KEARNEY        CLOUDY    30  27  86 W15       29.60S WCI  19
ORD            NOT AVBL
YORK           MOCLDY    32  32 100 NW15G22   29.55R WCI  22
AURORA         CLOUDY    32  30  92 NW15G26   29.56R WCI  22
LEXINGTON      LGT SNOW  31  27  86 NW17G24   29.63R WCI  20
HOLDREGE       CLOUDY    32  26  78 NW15G25   29.61S WCI  21
HEBRON         CLOUDY    35  30  82 NW15      29.57S WCI  25

...NEBRASKA PANHANDLE...

CITY           SKY/WX    TMP DP  RH WIND       PRES   REMARKS
CHADRON        CLOUDY    28  25  88 N14       29.82R FOG     WCI  17
ALLIANCE       LGT SNOW  28  25  88 N17       29.75R FOG     WCI  16
SCOTTSBLUFF    LGT SNOW  31  26  82 NW25G37   29.82R WCI  17
SIDNEY         LGT SNOW  30  22  72 N40G58    29.74S WCI  13

...WESTERN AND NORTH CENTRAL NEBRASKA...

CITY           SKY/WX    TMP DP  RH WIND       PRES   REMARKS
VALENTINE      LGT SNOW  26  22  84 NW24G40   29.66R FOG     WCI  11
AINSWORTH      LGT SNOW  27  24  89 NW29      29.62R WCI  11
ONEILL         CLOUDY    32  31  97 NW21G26   29.54S FOG     WCI  20
BROKEN BOW     LGT SNOW  29  24  82 NW23G32   29.59S WCI  15
IMPERIAL       LGT SNOW  31  26  82 N28G37    29.71R WCI  17
NORTH PLATTE   LGT SNOW  28  24  85 NW17      29.67R FOG     WCI  16
MCCOOK         LGT SNOW  31  27  85 NW31G37   29.68R FOG     WCI  16

...EASTERN NEBRASKA...

CITY           SKY/WX    TMP DP  RH WIND       PRES   REMARKS
NORFOLK        LGT SNOW  33  31  92 NW13      29.50R FOG     WCI  24
SO SIOUX CITY  LGT SNOW  33  32  96 N7        29.50R FOG     WCI  27
TEKAMAH        LGT SNOW  34  33  96 NW12      29.48R FOG     WCI  25
COLUMBUS       CLOUDY    34  28  80 W10       29.54R WCI  26
ALBION         LGT SNOW  32  29  88 NW15      29.53S WCI  22
OMAHA EPPLEY   LGT RAIN  36  34  92 W12       29.50R WCI  28
OFFUTT AFB     LGT RAIN  37  35  90 W13       29.49R WCI  29
MILLARD        DRIZZLE   37  34  87 W10G18    29.49S WCI  30
LINCOLN        CLOUDY    36  31  82 NW15      29.54R WCI  27
NEBRASKA CITY  CLOUDY    36  36  98 W9        29.51R WCI  29
BEATRICE       CLOUDY    35  32  88 W10G16    29.54S WCI  27
FALLS CITY     PTCLDY    35  31  85 W12       29.54R WCI  27

...NORTHERN KANSAS...

CITY           SKY/WX    TMP DP  RH WIND       PRES   REMARKS
GOODLAND       LGT SNOW  32  27  81 NW36G46   29.73R WCI  16
HILL CITY      PTCLDY    34  27  75 W14G21    29.67S WCI  25
PHILLIPSBURG   LGT SNOW  37  32  81 NW14      29.65R WCI  29
SMITH CENTER   MOCLDY    34  27  75 NW9       29.63R WCI  26
BELOIT         MOCLDY    37  30  75 W13G20    29.62R WCI  29
HAYS           CLOUDY    37  21  52 NW22G29   29.67R WCI  27
RUSSELL        CLOUDY    38  27  64 W16       29.65R WCI  29
CONCORDIA      CLOUDY    38  30  73 NW13      29.59S WCI  30
SALINA         PTCLDY    36  28  73 W12       29.63S WCI  28
TOPEKA         CLOUDY    43  34  70 W7        29.61R



USA.gov is the U.S. government's official web portal to all federal, state and local government web resources and services.